Погода Новотроицкое

Погода Новотроицкое : погода сейчас, прогноз погоды и архив. Всё, что Вы хотите узнать о погоде Новотроицкое!

Хотите узнать прогноз погоды Новотроицкое? Тогда Вам сюда: Погода Новотроицкое

Поиск расширенной информации на нашем сайте:

Другие новости

Новости СМИ2

Главная страница сайта

Новости сайта

03.07.2017

Напоминаем, что на нашем специализированном сайте Метеоцентр.Азия вы можете получить высокодетализированные автоматические прогнозы погоды по пунктам России, СНГ и мира в авиационном формате (включающие направление и скорость ветра, видимость, явления погоды, количество и форму облачности, нижнюю и верхнюю границу облачности).


Погода Новотроицкое - сегодня

Время (UTC), дата Ветер
(°,м/с) 
Видим.   Явления Облачность Т
(°С)
Тd
(°С)
f(%) Тe
(°С)
Pmin
(гПа)
dP
(гПа)
Po
(мм)
O2
(г/м3)
Тmin Tmax R s Состояние
почвы
18 16.10.17 050 (СВ) 10 км    8/8 600 м кучево-дожд. 
[Cb cap]
+14.5 +9 70 +16  1016.1  -0.2  722  275    +23.6  0.4     
21 16.10.17 140 (ЮВ) 10 км    8/8 600 м кучево-дожд. 
[Cb cap]
+12 +8.1 77 +12  1015.9  -0.6  722  277           
00 17.10.17 050 (СВ) 10 км    10/10 600 м кучево-дожд. 
[Cb cap]
+10 +7.3 83 +11  1015.5  -0.8  721  279           
03 17.10.17 140 (ЮВ) 20000 м    8/8 600 м кучево-дожд. 
[Cb cap]
+11.2 +7.4 77 +12  1014.9  -0.3  721  278      0.4     
06 17.10.17 180 (Ю) 20000 м    6/6 1000 м 
[Sc]
+22.3 +9.5 44 +24  1011.6  -1.2  720  267  +9.9    0.4     
09 17.10.17 320 (СЗ) 20000 м    3/0 средняя 
[Ac lent]
+25.7 +5.1 27 +26  1009.6  -1.4  719  264           
12 17.10.17 360 (С) 20000 м    6/0 средняя 
[Ac lent]
+23.7 +3.8 27 +24  1008.3  -1.6  718  266           
15 17.10.17 тихо ()   10 км    6/0 средняя 
[Ac lent]
+16.8 +2.9 39 +17  1009.3  -0.2  718  272    +27.1       
18 17.10.17 140 (ЮВ) 10 км    3/0 средняя 
[Ac lent]
+15.2 +4 47 +17  1007.3  -2.2  716  273    +27.1       
21 17.10.17 тихо ()   10 км    5/5 1000 м 
[Sc]
+10.6 +4.3 65 +11  1005.4  -2.6  722  279           
00 18.10.17 270 (З) 10 км    8/8 1000 м 
[Sc]
+13.4 +1.5 44 +13  1008.2  3.1  716  275           
03 18.10.17 270 (З) 20000 м    10/10 600 м 
[Sc]
+12.6 +3.4 53 +12  1011.5  3.1  719  276           
06 18.10.17 270 (З) 10 км  слаб. ливневой дождь  10/10 300 м кучево-дожд. 
[Cb cap]
+7.8 +3.8 76 +8  1019.3  6.4  724  283  +10.5         
09 18.10.17 160 (Ю) 20000 м    10/10 600 м кучево-дожд. 
[Cb cap]
+5.4 +3.2 86 +5  1023.5  3.5  726  286           
12 18.10.17 140 (ЮВ) 20000 м    10/10 600 м 
[Sc]
+5.8 +3.2 83 +5  1024.3  0.9  727  286           
15 18.10.17 140 (ЮВ) 10 км    10/10 600 м 
[Sc]
+6.6 +3.5 81 +6  1025.2  728  286    +13.4  10     
18 18.10.17 180 (Ю) 10 км    10/10 600 м 
[Sc]
+6.9 +4.6 85 +7  1026.2  728  285    +13.4  10     
21 18.10.17 140 (ЮВ) 10 км    4/0 средняя 
[Ac trans]
+4.9 +3 87 +6  1026.7  0.1  728  288           
00 19.10.17 180 (Ю) 10 км    8/8 1000 м 
[Sc]
+6.2 +3.6 83 +6  1027.1  0.6  729  287           
03 19.10.17 180 (Ю) 20000 м    8/8 600 м 
[Sc]
+7.2 +4 80 +8  1027.8  0.9  730  286           
06 19.10.17 180 (Ю) 20000 м    6/3 1000 м средняя 
[Sc|Ac trans]
+12 +3.2 55 +12  1026.9  730  281  +4.8         
09 19.10.17 230 (ЮЗ) 20000 м    8/8 600 м 
[Sc]
+14.2 +4 50 +15  1025.2  -1.2  729  278           
12 19.10.17 270 (З) 20000 м    10/10 600 м кучево-дожд. 
[Cb cap]
+13.4 +3.6 51 +14  1026.9  1.5  730  280           
15 19.10.17 270 (З) 10 км    8/8 600 м 
[Sc]
+9.8 +4.5 70 +10  1029.9  2.1  731  284    +15.1       
18 19.10.17 140 (ЮВ) 10 км    10/10 600 м 
[Sc]
+9.4 +5.1 74 +10  1029.9  731  284    +15.1       
Время (UTC), дата Ветер
(°,м/с) 
Видим.   Явления Облачность Т
(°С)
Тd
(°С)
f(%) Тe
(°С)
Pmin
(гПа)
dP
(гПа)
Po
(мм)
O2
(г/м3)
Тmin Tmax R s Состояние
почвы

Для получения пояснительной информации подведите курсор к названию столбца.

ПОГОДА Новотроицкое - архив

Всё, что Вы хотите узнать о погоде Новотроицкое - удобно и подробно!

Выберите нужную дату (начиная с 1 января 2015* года) и нажмите кнопку "Найти".
Будут отображены архивные сводки погоды по пункту Новотроицкое, начиная с указанной даты.


Отображать данные в формате CSV (для использования в таблицах Excel)


Внимание! Наш архив погоды предназначен исключительно для личного некоммерческого использования в познавательных целях. Если Вам необходимы официальные справки о состоянии погоды (для производственных, юридических, коммерческих и т.п. целей), обращайтесь в органы Росгидромета.

*Примечание: данная дата относится к архиву по метеостанциям СССР (Россия, СНГ, Балтия).
Архив по метеостанциям Зарубежной Европы и Азии (кроме Китая) хранится 10 дней, по другим регионам земного шара (Китай, Африка, Америка, Австралия, Океания) - 1 день.

Новотроицкое - район местоположения метеостанции


Название, широта, долгота, высота метеостанции:
Новотроицкое 43.7°ш. 73.8°д. 456 м над ур. моря [Казахстан]

Дополнительная информация

В oтличие oт бoльшинства пoгoдных сайтoв мы публикуем пoдрoбную метеoинфoрмацию в детальнoм прoфессиoнальнoм фoрмате.

Характеристики температуры и влажнoсти вoздуха измеряются на высoте 2 м в тени вдали oт зданий и деревьев.
Скoрoсть ветра измеряется на высoте 10 м (на урoвне рoста челoвека скoрoсть ветра ниже в 1.5-2 раза). Если метеoстанция нахoдится в гoрoде или в лесу, тo скoрoсть ветра занижена на 2-4 м/с пo сравнению с oткрытым местoм. Скoрoсть ветра над акватoриями крупных рек и oзёр, а также на вершинах хoлмoв на 2-5 м/с выше, чем в oбычных услoвиях.
Атмoсфернoе давление в разных тoчках местнoсти мoжет значительнo oтличаться oт давления на метеoстанции, в зависимoсти oт услoвий рельефа (при пoдъёме на 10 м давление пoнижается примернo на 1 мм рт.ст.).